Miscellaneous Local Product
Issued by NWS North Platte, NE

Home | Current Version | Previous Version | Graphics & Text | Print | Product List | Glossary On
Versions: 1 2 3 4 5 6 7 8 9 10 11 12 13 14 15 16 17 18 19 20 21 22 23 24 25 26 27 28 29 30 31 32 33 34 35 36 37 38 39 40 41 42 43 44 45 46 47 48 49 50
000
AXUS43 KLBF 182010
MISLBF


WESTERN AND NORTH CENTRAL NEBRASKA HOURLY WEATHER ROUNDUP
NATIONAL WEATHER SERVICE NORTH PLATTE NE
300 PM CDT SAT APR 18 2015

***STATIONS NOT REPORTING VARIABLES SUCH AS SKY/WEATHER OR
PRESSURE ARE PROVIDED BY THE NEBRASKA DEPARTMENT OF
ROADS...RAWS...AND APRS NETWORKS...AND ARE NOT UNDER
NATIONAL WEATHER SERVICE QUALITY CONTROL***

...OBSERVATIONS IN AND NEAR THE EASTERN PANHANDLE OF NEBRASKA...

CITY           SKY/WX    TMP DP  RH WIND       PRES   REMARKS
PINE RIDGE     CLOUDY    52  46  80 NW7       29.89F
CHADRON        CLOUDY    50  46  86 N6        29.91F
ALLIANCE       CLOUDY    56  42  59 MISG      29.88F
SIDNEY         PTSUNNY   54  42  64 SE6       29.88F
WHITECLAY        N/A     53  46  76 CALM        N/A
CRESCENT LAKE    N/A     62  45  54 SW7G14      N/A
BIG SPRINGS      N/A     59  47  63 NE5         N/A
$$

...OBSERVATIONS IN NORTH CENTRAL NEBRASKA...

CITY           SKY/WX    TMP DP  RH WIND       PRES   REMARKS
VALENTINE      PTSUNNY   60  48  64 SW3       29.87F
THEDFORD       SUNNY     65  46  51 SW3       29.86F
AINSWORTH      CLOUDY    57  53  86 CALM      29.87F
O`NEILL        CLOUDY    60  57  91 NE8       29.88S
ORD            CLOUDY    64  51  62 S3        29.84S
BROKEN BOW     MOSUNNY   68  50  52 MISG      29.84S
BROWNLEE         N/A     67  41  38 S5          N/A
SPRINGVIEW       N/A     58  53  83 CALM        N/A
BREWSTER         N/A     71  53  51 CALM        N/A
ROSE             N/A     61  54  77 MISG        N/A
NEWPORT          N/A     61  55  81 CALM        N/A
SARGENT          N/A     63  55  75 CALM        N/A
COMSTOCK         N/A     69  59  69 E5          N/A
EWING            N/A     62  57  83 E6          N/A
$$

...OBSERVATIONS IN SOUTHWEST NEBRASKA AND FAR NORTHEAST COLORADO...

CITY           SKY/WX    TMP DP  RH WIND       PRES   REMARKS
WRAY           MOCLDY    60  44  55 E7        29.83F
HOLYOKE        FAIR      61  43  51 E10       29.84F
IMPERIAL       MOSUNNY   63  45  51 SE10      29.82F
OGALLALA       PTSUNNY   61  44  52 NE3       29.84F
NORTH PLATTE   PTSUNNY   64  47  53 N5        29.84F
MCCOOK         MOSUNNY   67  47  48 S10       29.82F
LEXINGTON      SUNNY     68  51  53 SE5       29.83F
PAXTON           N/A     60  52  74 CALM        N/A
SUTHERLAND       N/A     61  45  56 NE3         N/A
BRADY            N/A     67  51  56 CALM        N/A
GOTHENBURG       N/A     68  47  46 CALM        N/A
CALLAWAY         N/A     65  55  69 SW3         N/A
$$

...NORTH PLATTE AREA...

CITY           SKY/WX    TMP DP  RH WIND       PRES   REMARKS
AIRPORT        PTSUNNY   64  47  53 N5        29.84F
DOWNTOWN         N/A     66  47  50 E3          N/A
$$

...SOME WEATHER OBSERVATIONS FROM AROUND THE REGION...

CITY           SKY/WX    TMP DP  RH WIND       PRES   REMARKS
DENVER         PTSUNNY   50  34  54 E9        29.88F
LARAMIE        FLURRIES  34  31  88 NW5       29.93S WCI  30
CHEYENNE       MOSUNNY   41  35  79 N7        29.91F
SCOTTSBLUFF    MOSUNNY   56  32  40 SE7       29.89F
RAPID CITY     LGT RAIN  47  44  90 N8        29.93F FOG
PIERRE         LGT RAIN  52  45  77 N9        29.88F
WINNER         CLOUDY    59  52  77 E10       29.87F
SIOUX FALLS    LGT RAIN  58  53  84 E6        29.90F
OMAHA          LGT RAIN  61  59  93 SE14      29.90S FOG
GRAND ISLAND   CLOUDY    66  55  67 SE7       29.85F
KANSAS CITY    LGT RAIN  62  59  90 S8        29.90F
WICHITA        CLOUDY    72  57  59 SE13G22   29.83F
HAYS           MOSUNNY   72  48  43 S10       29.79F
LIBERAL        MOSUNNY   70  32  24 SW13      29.82F
GOODLAND       PTSUNNY   61  44  53 SE13      29.81F
$$



USA.gov is the U.S. government's official web portal to all federal, state and local government web resources and services.